FW9539 Weather Reports


time (UTC)temp
C
wind
direction
speed
KPH
gust
KPH
rain 1hr
cm
rain 24hr
cm
rain mn
cm
humidity
%
barometer
mb
20260901161218 25 180 1.6 4.8 0.00 0.10 0.00 84 1021.8
20260901160216 25 143 4.8 9.7 0.00 0.10 0.00 86 1021.7
20260901155218 24 143 6.4 9.7 0.00 0.10 0.00 85 1021.8
20260901154316 24 160 6.4 9.7 0.00 0.10 0.00 86 1021.8
20260901153316 23 157 3.2 3.2 0.00 0.10 0.00 87 1021.7
20260901151316 22 156 3.2 6.4 0.00 0.10 0.00 88 1021.8
20260901150317 21 162 8.0 9.7 0.00 0.10 0.00 88 1021.8
20260901145317 21 157 8.0 9.7 0.00 0.10 0.00 87 1021.9
20260901144316 21 151 6.4 8.0 0.00 0.10 0.00 88 1021.9
20260901143316 20 154 6.4 8.0 0.00 0.10 0.00 88 1021.7
20260901140334 18 156 4.8 8.0 0.00 0.10 0.00 86 1021.7
20260901134233 17 159 4.8 8.0 0.00 0.10 0.00 87 1021.6
20260901133317 17 154 6.4 9.7 0.00 0.10 0.00 86 1021.6
20260901132317 17 162 6.4 9.7 0.00 0.10 0.00 86 1021.2
20260901131415 17 172 4.8 6.4 0.00 0.10 0.00 86 1021.0
20260901130416 17 157 3.2 4.8 0.00 0.10 0.00 86 1021.0
20260901125516 17 151 4.8 6.4 0.00 0.10 0.00 85 1020.8
20260901124516 17 156 6.4 9.7 0.00 0.10 0.00 85 1020.8
20260901123517 17 160 3.2 4.8 0.00 0.10 0.00 84 1020.7
20260901121615 17 157 3.2 6.4 0.00 0.10 0.00 84 1020.6
20260901115715 17 160 4.8 6.4 0.00 0.10 0.00 84 1020.4
20260901114732 17 139 4.8 6.4 0.00 0.10 0.00 83 1020.7
20260901113816 17 158 3.2 6.4 0.00 0.10 0.00 84 1020.6
20260901112819 18 159 3.2 6.4 0.00 0.10 0.00 84 1020.7
20260901111816 18 167 4.8 8.0 0.00 0.10 0.00 82 1020.6
20260901110915 18 145 4.8 9.7 0.00 0.10 0.00 83 1020.4
20260901105917 17 154 3.2 4.8 0.00 0.10 0.00 83 1020.4
20260901105017 17 157 0.0 0.0 0.00 0.10 0.00 82 1020.4
20260901104116 18 157 0.0 0.0 0.00 0.10 0.00 81 1020.5
20260901103117 18 157 3.2 4.8 0.00 0.10 0.00 82 1020.4
20260901102116 18 151 3.2 6.4 0.00 0.10 0.00 81 1020.4
20260901101115 18 159 6.4 8.0 0.00 0.10 0.00 81 1020.4
20260901100133 18 156 4.8 8.0 0.00 0.10 0.00 80 1020.4
20260901095118 18 146 3.2 6.4 0.00 0.10 0.00 80 1020.2
20260901094117 18 148 4.8 6.4 0.00 0.10 0.00 80 1020.0
20260901093215 18 149 3.2 6.4 0.00 0.10 0.00 80 1020.2
20260901092218 18 147 3.2 4.8 0.00 0.10 0.00 80 1020.4
20260901091216 18 151 4.8 6.4 0.00 0.10 0.00 79 1020.4
20260901085316 18 153 3.2 6.4 0.00 0.10 0.00 79 1020.6
20260901084316 18 156 3.2 6.4 0.00 0.10 0.00 79 1020.4
20260901081315 19 167 3.2 4.8 0.00 0.10 0.00 77 1020.6
20260901080414 19 149 4.8 6.4 0.00 0.10 0.00 77 1020.4
20260901080330 19 155 3.2 6.4 0.00 0.10 0.00 77 1020.4
20260901075416 19 159 4.8 6.4 0.00 0.10 0.00 77 1020.4
20260901073416 19 149 4.8 6.4 0.00 0.10 0.00 77 1020.6
20260901072414 20 138 3.2 4.8 0.00 0.10 0.00 76 1020.7
20260901071417 20 153 3.2 6.4 0.00 0.10 0.00 76 1020.6
20260901070417 20 159 3.2 4.8 0.00 0.10 0.00 76 1020.7
20260901065514 20 180 1.6 3.2 0.00 0.10 0.10 77 1020.6
20260901064514 20 149 3.2 8.0 0.00 0.10 0.10 76 1020.6
20260901063516 20 161 3.2 6.4 0.00 0.10 0.10 77 1020.5
20260901062514 20 159 4.8 6.4 0.00 0.10 0.10 76 1020.7
20260901060613 20 158 3.2 6.4 0.00 0.10 0.10 76 1020.9
20260901055713 20 158 6.4 9.7 0.00 0.10 0.10 76 1020.8
20260901054714 21 152 4.8 8.0 0.00 0.10 0.10 76 1020.9
20260901053813 21 166 4.8 8.0 0.00 0.10 0.10 76 1021.0
20260901052815 21 159 6.4 9.7 0.00 0.10 0.10 76 1020.9
20260901051814 21 161 6.4 11.3 0.00 0.10 0.10 74 1020.9
20260901050814 21 159 3.2 6.4 0.00 0.10 0.10 75 1020.8
20260901045815 21 156 8.0 12.9 0.00 0.10 0.10 75 1020.8
20260901044815 20 153 6.4 8.0 0.00 0.10 0.10 73 1020.9
20260901043814 21 153 4.8 8.0 0.00 0.10 0.10 74 1021.0
20260901042831 21 112 0.0 1.6 0.00 0.10 0.10 73 1021.2
20260901041913 21 157 3.2 3.2 0.00 0.10 0.10 73 1021.0
20260901035915 21 179 1.6 6.4 0.00 0.10 0.10 73 1021.2
20260901033912 21 180 1.6 3.2 0.00 0.10 0.10 72 1020.7
20260901031916 22 157 0.0 1.6 0.00 0.10 0.10 71 1020.3
20260901030914 22 162 3.2 4.8 0.00 0.10 0.10 72 1020.3
20260901025915 22 161 4.8 6.4 0.00 0.10 0.10 72 1020.1
20260901024913 22 168 4.8 8.0 0.00 0.10 0.10 72 1019.8
20260901023914 22 141 4.8 9.7 0.00 0.10 0.10 72 1019.7
20260901023013 22 159 8.0 12.9 0.00 0.10 0.10 71 1019.7
20260901022016 22 162 6.4 14.5 0.00 0.10 0.10 72 1019.7
20260901021112 22 159 8.0 11.3 0.00 0.10 0.10 71 1019.5
20260901020113 22 158 6.4 8.0 0.00 0.10 0.10 72 1019.6
20260901015114 22 155 4.8 8.0 0.00 0.10 0.10 72 1019.4
20260901013211 22 161 9.7 17.7 0.00 0.10 0.10 72 1018.9
20260901012216 23 161 8.0 12.9 0.00 0.10 0.10 72 1018.6
20260901011214 23 161 6.4 9.7 0.00 0.10 0.10 72 1018.6
20260901010214 23 151 4.8 9.7 0.00 0.10 0.10 73 1018.6
20260901005214 23 163 4.8 9.7 0.00 0.10 0.10 73 1018.6
20260901004215 23 163 4.8 9.7 0.00 0.10 0.10 73 1018.8
20260901003214 23 164 6.4 12.9 0.00 0.10 0.10 74 1018.7
20260901002214 24 176 4.8 11.3 0.00 0.10 0.10 74 1018.7
20260901001228 24 166 4.8 8.0 0.00 0.10 0.10 74 1018.6
20260901000233 25 162 6.4 9.7 0.00 0.10 0.10 76 1018.6
20260831235214 25 170 6.4 12.9 0.00 0.10 0.10 76 1018.5
20260831234215 25 167 4.8 8.0 0.00 0.10 0.10 77 1018.5
20260831233312 25 160 6.4 11.3 0.00 0.10 0.10 77 1018.7
20260831232329 25 165 4.8 8.0 0.00 0.10 0.10 78 1018.8
20260831223515 24 164 4.8 11.3 0.00 0.10 0.10 78 1019.4
20260831221514 24 180 3.2 4.8 0.00 0.10 0.10 78 1019.9
20260831215514 21 157 3.2 6.4 0.00 0.10 0.10 76 1020.4
20260831214513 21 112 0.0 1.6 0.00 0.10 0.10 77 1020.5
20260831213514 21 342 0.0 1.6 0.00 0.10 0.10 76 1020.7
20260831212515 21 315 0.0 0.0 0.00 0.10 0.10 75 1020.7
20260831210614 20 315 0.0 1.6 0.00 0.10 0.10 74 1021.5
20260831205612 20 289 3.2 6.4 0.00 0.10 0.10 72 1021.8
20260831204613 20 291 3.2 6.4 0.03 0.10 0.10 73 1022.1
20260831203612 20 310 3.2 4.8 0.03 0.10 0.10 72 1022.5
20260831202612 19 310 6.4 8.0 0.03 0.10 0.10 71 1022.6
20260831201711 19 313 4.8 8.0 0.03 0.10 0.10 70 1022.9
20260831200713 19 312 4.8 11.3 0.08 0.10 0.10 69 1022.9
20260831195811 19 325 8.0 12.9 0.08 0.10 0.10 69 1022.9
20260831193814 20 315 6.4 9.7 0.08 0.08 0.08 68 1023.2
20260831192913 20 320 4.8 8.0 0.08 0.08 0.08 66 1023.3
20260831192012 20 247 1.6 3.2 0.08 0.08 0.08 66 1023.6
20260831191014 20 16 3.2 8.0 0.05 0.05 0.05 66 1023.2
20260831190015 20 356 1.6 3.2 0.03 0.03 0.03 65 1023.7
20260831185112 20 350 1.6 3.2 0.03 0.03 0.03 66 1023.8
20260831184113 20 339 4.8 8.0 0.03 0.03 0.03 65 1023.8
20260831183211 21 324 8.0 12.9 0.00 0.00 0.00 65 1024.0
20260831181213 22 332 11.3 24.1 0.00 0.00 0.00 65 1023.4
20260831175313 22 335 9.7 17.7 0.00 0.00 0.00 65 1022.9
20260831174314 22 313 12.9 24.1 0.00 0.00 0.00 65 1022.6
20260831173411 22 320 12.9 19.3 0.00 0.00 0.00 65 1022.4
20260831171414 23 312 11.3 17.7 0.00 0.00 0.00 67 1022.3
20260831170512 27 315 9.7 19.3 0.00 0.00 0.00 68 1021.7
20260831165511 28 157 0.0 0.0 0.00 0.00 0.00 69 1021.6
20260831164512 27 150 1.6 3.2 0.00 0.00 0.00 68 1021.4
20260831163512 27 78 0.0 0.0 0.00 0.00 0.00 70 1021.5
20260831162513 27 45 0.0 3.2 0.00 0.00 0.00 70 1021.2